Préparation du vol

Réserver un ULM chez EFU                     Découvrir nos appareils                     Coordonnées de l'école

Available data for LFPN from the past hour

METAR
LFPN 212030Z AUTO 00000KT CAVOK 12/10 Q1018 NOSIG
TAF
TAF LFPN 211700Z 2118/2203 18005KT CAVOK BECMG 2200/2202 34005KT BKN012 PROB30 2202/2203 -RA BKN008

Pour avoir des informations détaillée sur la météo à venir vous pouvez consulter Aeroweb

prevision des pluies

Nota : Heuro locale = heure CET

ATISATIS Étampes129.900
SOLÉtampes sol121.850
TWRÉtampes tour119.050
VDFÉtampes gonio119.050

OLIVIA

Outil en Ligne Intégré de Visualisation d'Informations Aéronautiques

OLIVIA